Zurück zum Katalog

COSMOS 203

AktivMilitärLEO
NORAD 3129·PAYLOAD·🇷🇺 Russia

Gestartet Feb 20, 1968 von Plesetsk Cosmodrome

Loading…

Nächste Überflüge (nächste 24 Stunden)

TLE

AktuellSource: Space-Track

Epoche: Sep 14, 2026, 03:07 UTC

1 03129U 68011A   26257.13020976 -.00000172  00000-0 -39057-3 0  9990
2 03129  74.0536 320.0841 0011666 141.3853 242.5644 13.18306216817706

Verfolge COSMOS 203 in Echtzeit mit AllMySat

Download on the App Store